Powrót do katalogu

DMSP 5D-2 F11 DEB

AktywnySSO
NORAD 28303·DEBRIS·🇺🇸 United States

Wystrzelony Nov 28, 1991 z Vandenberg Space Force Base

Loading…

Następne Przeloty (najbliższe 24 godziny)

TLE

ŚwieżeSource: Space-Track

Epoka: Sep 14, 2026, 21:46 UTC

1 28303U 91082Q   26257.90718912  .00000063  00000-0  44532-4 0  9996
2 28303  98.7178 277.7643 0029297 163.5386 315.5442 14.26272458165170

Śledź DMSP 5D-2 F11 DEB w czasie rzeczywistym z AllMySat

Download on the App Store